TimeCST,TemperatureF,Dew PointF,Humidity,Sea Level PressureIn,VisibilityMPH,Wind Direction,Wind SpeedMPH,Gust SpeedMPH,PrecipitationIn,Events,Conditions,WindDirDegrees,DateUTC
12:53 AM,41.0,32.0,70,30.19,-9999.0,North,13.8,-,N/A,,Clear,350,2012-12-29 06:53:00
1:53 AM,39.0,32.0,76,30.21,-9999.0,North,9.2,-,N/A,,Clear,10,2012-12-29 07:53:00
2:53 AM,39.0,28.9,67,30.25,-9999.0,North,12.7,-,N/A,,Clear,360,2012-12-29 08:53:00
3:53 AM,37.9,28.9,70,30.28,-9999.0,North,9.2,-,N/A,,Clear,350,2012-12-29 09:53:00
4:53 AM,37.0,28.0,70,30.30,-9999.0,NNW,10.4,-,N/A,,Clear,340,2012-12-29 10:53:00
5:53 AM,37.0,28.0,70,30.33,-9999.0,NNW,12.7,-,N/A,,Clear,340,2012-12-29 11:53:00
6:53 AM,36.0,28.0,73,30.37,-9999.0,NNW,9.2,-,N/A,,Clear,340,2012-12-29 12:53:00
7:53 AM,37.0,28.0,70,30.40,-9999.0,NNW,8.1,-,N/A,,Clear,340,2012-12-29 13:53:00
8:53 AM,39.0,26.1,60,30.43,-9999.0,North,9.2,-,N/A,,Clear,350,2012-12-29 14:53:00
9:53 AM,42.1,23.0,47,30.45,-9999.0,North,17.3,-,N/A,,Clear,360,2012-12-29 15:53:00
10:53 AM,46.9,23.0,39,30.43,-9999.0,NNE,20.7,-,N/A,,Clear,20,2012-12-29 16:53:00
11:53 AM,48.9,21.9,35,30.43,-9999.0,North,23.0,27.6,N/A,,Clear,360,2012-12-29 17:53:00
1:53 PM,51.1,23.0,33,30.39,-9999.0,North,18.4,-,N/A,,Clear,10,2012-12-29 19:53:00
2:53 PM,52.0,23.0,32,30.38,-9999.0,North,16.1,23.0,N/A,,Clear,360,2012-12-29 20:53:00
3:53 PM,53.1,23.0,31,30.38,-9999.0,North,16.1,-,N/A,,Clear,360,2012-12-29 21:53:00
4:53 PM,50.0,24.8,37,30.39,-9999.0,North,17.3,-,N/A,,Clear,350,2012-12-29 22:53:00
5:53 PM,46.9,25.0,42,30.42,-9999.0,North,12.7,-,N/A,,Clear,350,2012-12-29 23:53:00
6:53 PM,46.0,27.0,47,30.42,-9999.0,North,8.1,-,N/A,,Clear,360,2012-12-30 00:53:00
7:53 PM,43.0,28.9,58,30.44,-9999.0,North,5.8,-,N/A,,Clear,360,2012-12-30 01:53:00
8:53 PM,42.1,30.0,62,30.44,-9999.0,NNW,3.5,-,N/A,,Clear,340,2012-12-30 02:53:00
9:53 PM,43.0,30.0,60,30.45,-9999.0,NNW,3.5,-,N/A,,Clear,340,2012-12-30 03:53:00
10:53 PM,43.0,32.0,65,30.45,-9999.0,NNE,3.5,-,N/A,,Clear,20,2012-12-30 04:53:00
11:53 PM,42.1,30.9,65,30.45,-9999.0,NNW,4.6,-,N/A,,Clear,330,2012-12-30 05:53:00